Find Starlink 34329

NORAD ID: 64256 Int'l Des: 2025-120 Owner: SPXS Country: US Constellation: starlink operational
LEOCIRCULAR

現在のビュー

3D地球を読み込み中...

About Starlink 34329

Starlink 34329 (NORAD 64256) is a starlink constellation satellite (v2 mini) launched Jun 4, 2025 by SPXS of US. It operates in LEO, CIRCULAR orbit with a mass of 575.00 kg.

次回通過

Passes for default location (London). Set your location on the main map for personalized predictions.

高度履歴

Loading altitude history...

軌道要素

1 64256U 25120A 26264.07506475 .00017861 00000-0 53796-3 0 9993
2 64256 53.1612 283.2533 0001318 77.7640 282.3510 15.34431292 73918
Epoch: Sep 21, 2026 • Age: 14 hours

現在のステータス

高度 462.7 km
遠地点 / 近地点 N/A
速度 7.64 km/s
衛星直下点 22.18°N, 57.75°E
打ち上げ日 Jun 4, 2025
運用期間 1.2 years
タイプ internet

技術仕様

分類 Payload
質量 575.00 kg
乾燥質量 530.00 kg
長さ 0.30 m
スパン 29.00 m
形状 ? Box + pan
製造者 SPXS
バスタイプ Starlink V2MO
フェーズステータス In Orbit
所有者/国 SPXS/US

Most Searched